Pittsburgh, PA

12:43 PM EST on December 05, 2019 (GMT -0500)
Pittsburgh International

Weather History for KPIT - October, 2019

Change the Weather History Date:

Friday, October 18, 2019

  Actual Average Record
Temperature  
Mean Temperature 47 °F 52 °F  
Max Temperature 55 °F 62 °F 83 °F (1938)
Min Temperature 37 °F 42 °F 26 °F (1976)
Degree Days  
Heating Degree Days 18 13  
Month to date heating degree days 159 192  
Since 1 July heating degree days 167 306  
Cooling Degree Days 0 0  
Month to date cooling degree days 37 6  
Year to date cooling degree days 934 734  
Moisture  
Dew Point 36 °F    
Average Humidity 70    
Maximum Humidity 89    
Minimum Humidity 47    
Precipitation  
Precipitation 0.00 in 0.07 in 1.66 in (1927)
Month to date precipitation 3.20 1.29  
Year to date precipitation 43.29 31.11  
Sea Level Pressure  
Sea Level Pressure 30.06 in    
Wind  
Wind Speed 6 mph ()    
Max Wind Speed 16 mph    
Max Gust Speed 22 mph    
Visibility 10.0 miles    
Events      
T = Trace of Precipitation, MM = Missing Value Source: Averaged Metar Reports

Daily Weather History Graph

Daily Weather History Graph

Search for Another Location

Airport or City:

Astronomy

Oct. 18, 2019 Rise Set
Actual Time 7:34 AM EDT 6:36 PM EDT
Civil Twilight 7:07 AM EDT 7:04 PM EDT
Nautical Twilight 6:35 AM EDT 7:35 PM EDT
Astronomical Twilight 6:03 AM EDT 8:07 PM EDT
Moon 9:51 PM EDT (10/18) 12:07 PM EDT (10/18)
Length of Visible Light 11h 57m
Length of Day
11h 01m
Waning Gibbous, 79% of the Moon is Illuminated
Oct 18
Waning Gibbous
Oct 21
Last Quarter
Oct 27
New
Nov 4
First Quarter
Nov 12
Full

Hourly Weather History & Observations

Time (EDT) Temp. Windchill Dew Point Humidity Pressure Visibility Wind Dir Wind Speed Gust Speed Precip Events Conditions
12:51 AM 44.1 °F 39.5 °F 39.0 °F 82% 29.98 in 10.0 mi WNW 8.1 mph - N/A   Overcast
1:51 AM 43.0 °F 39.5 °F 37.9 °F 82% 29.98 in 10.0 mi West 5.8 mph - N/A   Scattered Clouds
2:51 AM 42.1 °F 39.2 °F 37.0 °F 82% 29.99 in 10.0 mi West 4.6 mph - N/A   Partly Cloudy
3:51 AM 39.0 °F 34.8 °F 36.0 °F 89% 30.00 in 10.0 mi West 5.8 mph - N/A   Partly Cloudy
5:51 AM 39.9 °F 35.8 °F 37.0 °F 89% 30.03 in 10.0 mi West 5.8 mph - N/A   Mostly Cloudy
6:51 AM 41.0 °F 36.4 °F 37.9 °F 89% 30.04 in 10.0 mi West 6.9 mph - N/A   Mostly Cloudy
7:51 AM 41.0 °F 36.4 °F 37.9 °F 89% 30.06 in 10.0 mi West 6.9 mph - N/A   Scattered Clouds
8:51 AM 44.1 °F 38.6 °F 39.0 °F 82% 30.08 in 10.0 mi WNW 10.4 mph - N/A   Scattered Clouds
9:51 AM 46.9 °F - 37.0 °F 68% 30.10 in 10.0 mi NW 9.2 mph - N/A   Scattered Clouds
10:51 AM 50.0 °F - 34.0 °F 54% 30.10 in 10.0 mi NW 12.7 mph - N/A   Scattered Clouds
11:51 AM 50.0 °F - 35.1 °F 57% 30.10 in 10.0 mi NNW 11.5 mph - N/A   Mostly Cloudy
12:51 PM 53.1 °F - 35.1 °F 50% 30.09 in 10.0 mi NW 9.2 mph - N/A   Mostly Cloudy
1:51 PM 53.1 °F - 34.0 °F 48% 30.08 in 10.0 mi NW 9.2 mph - N/A   Mostly Cloudy
2:51 PM 55.0 °F - 35.1 °F 47% 30.07 in 10.0 mi WNW 9.2 mph - N/A   Scattered Clouds
3:51 PM 55.0 °F - 35.1 °F 47% 30.07 in 10.0 mi NW 6.9 mph - N/A   Partly Cloudy
4:51 PM 53.1 °F - 35.1 °F 50% 30.07 in 10.0 mi West 5.8 mph - N/A   Partly Cloudy
5:51 PM 53.1 °F - 34.0 °F 48% 30.07 in 10.0 mi WSW 4.6 mph - N/A   Scattered Clouds
6:51 PM 50.0 °F - 36.0 °F 59% 30.07 in 10.0 mi West 4.6 mph - N/A   Mostly Cloudy
7:51 PM 46.9 °F - 36.0 °F 66% 30.09 in 10.0 mi Calm Calm - N/A   Mostly Cloudy
8:51 PM 44.1 °F - 37.9 °F 79% 30.09 in 10.0 mi Calm Calm - N/A   Scattered Clouds
9:51 PM 41.0 °F - 37.0 °F 86% 30.10 in 10.0 mi Calm Calm - N/A   Scattered Clouds
10:51 PM 39.9 °F - 36.0 °F 86% 30.09 in 10.0 mi Calm Calm - N/A   Scattered Clouds
11:51 PM 37.9 °F - 35.1 °F 89% 30.08 in 10.0 mi Calm Calm - N/A   Partly Cloudy